Location: Calvatone
(45.1167°N, 10.4333°E)
Time: 09:33:09
(UTC+00:00)

BlueWalker 3 - Visible Passes

Search period start: 08 June 2023 00:00
Search period end: 18 June 2023 00:00
Orbit: 494 x 513 km, 53.2° (Epoch: 07 June)

Date Brightness Start Highest point End Pass type
(mag) Time Alt. Az. Time Alt. Az. Time Alt. Az.
08 Jun 4.1 19:43:11 10° NW 19:46:23 24° N 19:49:34 10° ENE visible
08 Jun 3.0 21:21:55 10° NW 21:25:36 42° NNE 21:28:15 17° E visible
08 Jun 3.1 23:00:29 10° WNW 23:02:55 31° W 23:02:55 31° W visible
09 Jun 3.0 21:01:27 10° NW 21:05:10 43° NNE 21:08:07 15° E visible
09 Jun 3.0 22:40:03 10° WNW 22:42:46 34° WSW 22:42:46 34° WSW visible
10 Jun 2.9 20:41:00 10° NW 20:44:42 43° NNE 20:48:02 12° E visible
10 Jun 2.8 22:19:35 10° WNW 22:22:41 37° WSW 22:22:41 37° WSW visible
11 Jun 2.9 20:20:32 10° NW 20:24:13 44° NNE 20:27:57 10° E visible
11 Jun 2.6 21:59:08 10° WNW 22:02:39 38° SW 22:02:39 38° SW visible
12 Jun 2.8 20:00:02 10° NW 20:03:45 45° NNE 20:07:29 10° E visible
12 Jun 2.6 21:38:39 10° WNW 21:42:15 37° SW 21:42:39 36° SSW visible
13 Jun 2.8 19:39:33 10° NW 19:43:16 45° NNE 19:47:00 10° E visible
13 Jun 2.8 21:18:10 10° WNW 21:21:45 36° SW 21:22:41 31° S visible
14 Jun 2.8 20:57:41 10° WNW 21:01:13 35° SW 21:02:46 25° S visible
15 Jun 2.9 20:37:10 10° WNW 20:40:42 35° SW 20:42:53 19° SSE visible
16 Jun 3.0 20:16:39 10° WNW 20:20:09 34° SW 20:23:03 14° SSE visible
17 Jun 3.1 19:56:08 10° WNW 19:59:36 33° SW 20:03:05 10° SSE visible
